DELTA 1 DEB, 42555

Orbit data source: Space-Track

DELTA 1 DEB, 42555 is space debris in SSO originally from a launch on Sun, 23 Jul 1972 UTC launched from the Air Force Western Test Range (AFWTR). Debris objects in space refer to the collection of defunct objects orbiting the Earth. Examples of debris include non-operational satellites, rocket bodies, and fragments generated from explosions, collisions, or faulty payload assembly.

Loading next visibility...
Identifier
42555, 1972-058JN
Orbit
SSO
Country
Flag of USUS
Related business
Manufacturer
Unknown
Mission
Spacecraft
Bus & Motor
Unknown
Mass
Unknown
Launch date (UTC)
1972-07-23 (53 years ago)
Launch vehicle
Unknown
Launch site
Air Force Western Test Range (AFWTR)
Object type
Payload
Rocket body
Debris
Shape & HBR
Unknown shape, 0.1 m
Radar Cross Section
Small (<0.1 m²)

Expand to show TLE details & history
Last TLE update: 2 days ago

TLE from 2 days ago
0 DELTA 1 DEB
1 42555U 72058JN  25348.73913020  .00001337  00000-0  21736-3 0  9996
2 42555  97.7796 332.4686 0013035 193.4912 342.8128 14.72598060647222
Epoch: 2025-12-14T17:44Z
TLE epoch observation values (Epoch: 2025-12-14T17:44:20.849Z)
Latitude
3.60883°
Longitude
163.22503°
Altitude
646.649 km
Speed
7.539 km/s
True Right ascension
10h 11m 50s
True Declination
3° 35' 13"
Sunlit
Object was in daylight at epoch
Visualization orbit readout
Latitude
Unknown
Longitude
Unknown
Altitude
Unknown
Speed
Unknown
Apparent Right ascension
Unknown
Apparent Declination
Unknown
Sunlit
N/A
Visualization observer readout
Local Sidereal Time
10:45:09
Azimuth
Unknown
Elevation
Unknown
Doppler factor
Unknown
Orbital elements
Apogee altitude
658.993 km
Perigee altitude
640.671 km
Semi-major axis
7,027.969 km
Eccentricity
0.0013
Inclination
97.7796°
RAAN
332.4686°
Arg. of periapsis
193.4912°
True anomaly
342.76859°
Mean anomaly
342.8128°
Eccentric anomaly
342.7907°
Mean motion
3.68382 °/min
Orbital period
97.72 mins
BSTAR
0.00021736
Loading maneuver chart data...
Computing Atmospheric mass density...

Documentation

Showing up to 5 results
|